This demonstration page uses our WeatherBlox Daily Observations layout. Learn more.

Left ArrowRight Arrow

39.08367, -84.50855

Hourly Observations for January 5, 2017

Temp ( °F °C ) Dew Point ( °F °C ) Humidity (%) Winds ( mph kmh ) Pressure ( in mb ) Visibility ( mi km ) Precip ( " mm )
12:53 am 00:53 Mostly Cloudy 22 -5.6 13 -10.6 68 68 W 7 11 30.08 1019 10 16 0.00 0.00
1:53 am 01:53 Cloudy 22 -5.6 12 -11.1 66 66 WNW 9 15 30.09 1019 10 16 0.00 0.00
2:53 am 02:53 Cloudy 22 -5.6 12 -11.1 66 66 WNW 6 9 30.11 1020 10 16 0.00 0.00
3:53 am 03:53 Cloudy 22 -5.6 13 -10.6 68 68 W 8 13 30.09 1019 10 16 0.00 0.00
4:53 am 04:53 Cloudy with Light Snow 21 -6.1 16 -8.9 81 81 WSW 9 15 30.11 1020 3 5 0.00 0.00
5:13 am 05:13 Cloudy with Light Snow 21 -6.1 17 -8.3 85 85 WSW 6 9 30.12 1020 3 4 0.00 0.00
5:30 am 05:30 Cloudy with Light Snow 21 -6 18 -8 86 86 SW 6 9 30.12 1020 2 3 0.00 0.00
5:53 am 05:53 Cloudy with Light Snow 21 -6.1 18 -7.8 88 88 SSW 5 7 30.08 1019 2 3 0.00 0.00
6:01 am 06:01 Cloudy with Light Snow 21 -6.1 18 -7.8 88 88 SW 8 13 30.09 1019 3 4 0.00 0.00
6:08 am 06:08 Cloudy with Light Snow 21 -6.1 17 -8.3 85 85 SW 7 11 30.09 1019 4 6 0.00 0.00
6:15 am 06:15 Cloudy with Light Snow 21 -6.1 17 -8.3 85 85 SW 6 9 30.09 1019 5 8 0.00 0.00
6:28 am 06:28 Cloudy with Light Snow 21 -6 18 -8 86 86 WSW 6 9 30.09 1019 6 10 0.00 0.00
6:53 am 06:53 Cloudy with Light Snow 21 -6.1 17 -8.3 85 85 WSW 6 9 30.08 1019 4 6 0.00 0.00
7:13 am 07:13 Cloudy with Light Snow 21 -6.1 18 -7.8 88 88 Calm 30.09 1019 3 4 0.00 0.00
7:36 am 07:36 Cloudy with Light Snow 21 -6 18 -8 86 86 Calm 30.09 1019 4 6 0.00 0.00
7:53 am 07:53 Cloudy with Light Snow 21 -6.1 18 -7.8 88 88 Calm 30.08 1019 3 5 0.00 0.00
8:38 am 08:38 Cloudy with Light Snow 21 -6 18 -8 86 86 W 5 7 30.09 1019 2 3 0.00 0.00
8:53 am 08:53 Cloudy with Light Snow 22 -5.6 17 -8.3 82 82 W 5 7 30.09 1019 2 3 0.01 0.25
9:48 am 09:48 Cloudy with Light Snow 21 -6 18 -8 86 86 Calm 30.12 1020 1 2 0.00 0.00
9:53 am 09:53 Cloudy with Light Snow 22 -5.6 19 -7.2 89 89 Calm 30.09 1019 1 2 0.01 0.25
10:10 am 10:10 Cloudy with Light Snow 21 -6 18 -8 86 86 W 6 9 30.12 1020 1 2 0.00 0.00
10:29 am 10:29 Cloudy with Light Snow 22 -5.6 18 -7.8 85 85 WSW 3 6 30.12 1020 1 2 0.00 0.00
10:51 am 10:51 Cloudy with Light Snow 21 -6 19 -7 93 93 WSW 5 7 30.09 1019 1 2 0.00 0.00
10:53 am 10:53 Cloudy with Light Snow 22 -5.6 19 -7.2 89 89 VRB 5 7 30.08 1019 2 2 0.00 0.00
11:05 am 11:05 Cloudy with Light Snow 22 -5.6 19 -7.2 89 89 SSW 6 9 30.09 1019 2 3 0.00 0.00
11:25 am 11:25 Cloudy with Light Snow 23 -5 19 -7.2 85 85 S 6 9 30.09 1019 3 5 0.00 0.00
11:39 am 11:39 Cloudy with Light Snow 23 -5 19 -7.2 85 85 S 3 6 30.06 1018 5 8 0.00 0.00
11:53 am 11:53 Cloudy 23 -5 19 -7.2 85 85 S 3 6 30.05 1018 8 13 0.00 0.00
12:53 pm 12:53 Cloudy 24 -4.4 18 -7.8 77 77 SW 8 13 30.04 1017 10 16 0.00 0.00
1:46 pm 13:46 Cloudy with Light Snow 25 -4 18 -8 74 74 WSW 5 7 30.00 1016 3 4 0.00 0.00
1:53 pm 13:53 Cloudy with Light Snow 24 -4.4 19 -7.2 81 81 W 5 7 29.99 1016 2 3 0.00 0.00
2:53 pm 14:53 Cloudy with Light Snow 23 -5 19 -7.2 85 85 WNW 5 7 30.00 1016 2 3 0.01 0.25
3:53 pm 15:53 Cloudy with Light Snow 23 -5 18 -7.8 81 81 NW 8 13 30.02 1017 2 3 0.00 0.00
4:53 pm 16:53 Cloudy with Light Snow 22 -5.6 18 -7.8 85 85 NNW 7 11 30.04 1017 2 3 0.00 0.00
5:53 pm 17:53 Cloudy with Light Snow 21 -6.1 17 -8.3 85 85 VRB 6 9 30.04 1017 7 11 0.00 0.00
6:21 pm 18:21 Cloudy with Light Snow 21 -6.1 16 -8.9 81 81 N 9 15 30.06 1018 5 8 0.00 0.00
6:53 pm 18:53 Cloudy 20 -6.7 13 -10.6 74 74 NNW 9 15 30.07 1018 10 16 0.00 0.00
7:53 pm 19:53 Cloudy 19 -7.2 13 -10.6 77 77 NW 8 13 30.10 1019 10 16 0.00 0.00
8:53 pm 20:53 Cloudy 18 -7.8 11 -11.7 74 74 NW 8 13 30.13 1020 10 16 0.00 0.00
9:25 pm 21:25 Cloudy 18 -7.8 9 -12.8 68 68 NNW 10 17 30.15 1021 10 16 0.00 0.00
9:53 pm 21:53 Cloudy 17 -8.3 9 -12.8 70 70 NW 8 13 30.13 1020 10 16 0.00 0.00
9:55 pm 21:55 Cloudy 17 -8.3 8 -13.3 68 68 NW 7 11 30.15 1021 10 16 0.00 0.00
10:53 pm 22:53 Cloudy 16 -8.9 8 -13.3 71 71 NNW 8 13 30.14 1021 10 16 0.00 0.00
11:53 pm 23:53 Mostly Cloudy 15 -9.4 7 -13.9 70 70 NW 10 17 30.16 1021 10 16 0.00 0.00

Powered by AerisWeather